Location: Baumgarten
(49.0970°N, 12.7493°E)
Time: 18:07:27
(UTC+00:00)

Cosmos 1818 - Pass Details

Date: 05 July 2020
Orbit: 777 x 796 km, 65.0° (Epoch: 13 August)

Event Time Altitude Azimuth Distance (km) Brightness Sun altitude
Rises 20:47:54 0° 228° (SW) 3,271 6.7 -11.2°
Reaches altitude 10° 20:50:20 10° 232° (SW) 2,349 6.0 -11.4°
Maximum altitude 20:55:42 62° 313° (NW) 888 4.1 -11.9°
Drops below altitude 10° 21:01:07 10° 35° (NE) 2,373 6.4 -12.4°
Sets 21:03:35 0° 39° (NE) 3,308 7.1 -12.6°
